{"data":{"norad_id":53439,"epoch":"2026-05-25T02:36:02.282400Z","epoch_age_seconds":61539,"freshness":"FRESH","line1":"1 53439U 22097BD  26145.10835975  .00000745  00000+0  64908-4 0  9996","line2":"2 53439  53.2127 120.8321 0001158  80.6300 279.4823 15.08836245210331","mean_motion":15.08836245,"eccentricity":0.0001158,"inclination_deg":53.2127,"raan_deg":120.8321,"arg_perigee_deg":80.63,"mean_anomaly_deg":279.4823,"bstar":6.4908e-5,"rev_number":21033,"period_min":95.43779219063,"perigee_km":538.95377464255,"apogee_km":540.55595839884,"semimajor_km":6917.8918665207,"source":"CELESTRAK","updated_at":"2026-05-25T13:38:17.407706Z"}}